sat.trackr.live / text

‹ back to catalog

STARLINK-31443

NORAD 59393 · 2024-062V

PAYLOAD ACTIVE UNKNOWN

§ Identity

Operator
Country
US
Launch date
2024-04-02
Launch site
AFWTR
Launch vehicle
Mass (kg)
RCS (m²)

Purposes: comms

External: N2YO · Heavens-Above · Gunter

§ Orbital elements

Epoch: 2026-09-21T15:56:36.089376Z

Period
93.85 min
Inclination
53.1590°
Eccentricity
0.0001362
Mean motion
15.34392137 rev/d
Perigee alt
461.8 km
Apogee alt
463.7 km
Semi-major
6,840.9 km
B*
2.7536e-6
RAAN
48.3320°
Arg perigee
93.6675°
Mean anomaly
266.4483°
Rev number
13,991

§ Raw data

STARLINK-314431 59393U 24062V   26264.66430659 -.00000283  00000+0  27536-5 0  99932 59393  53.1590  48.3320 0001362  93.6675 266.4483 15.34392137139916

JSON: /api/v1/satellites/59393 · /tle

For live sub-satellite position, see the globe view (requires WebGL).

§ Visibility from observer

Set your observer location to see the next 7 days of passes ≥ 10°. The values pass through the URL so the page stays shareable.

No JS? Fill the form by hand. The geolocation button needs JavaScript.